Regional Weather Roundup
Issued by NWS

Home | Current Version | Previous Version | Graphics & Text | Print | Product List | Glossary On
Versions: 1 2 3 4 5 6 7 8 9 10 11 12 13 14 15 16 17 18 19 20 21 22 23 24 25 26 27 28 29 30 31 32 33 34 35 36 37 38 39 40 41 42 43 44 45 46 47 48 49 50
000
ASUS43 KFSD 220710
RWRSD

WEATHER ROUNDUP FOR SOUTH DAKOTA
NATIONAL WEATHER SERVICE SIOUX FALLS SD
200 AM CDT TUE AUG 22 2017

NOTE: "FAIR" INDICATES FEW OR NO CLOUDS BELOW 12,000 FEET WITH NO
SIGNIFICANT WEATHER AND/OR OBSTRUCTIONS TO VISIBILITY.


SDZ001>005-009-010-012>017-220800-
NORTHWEST AND NORTH CENTRAL SOUTH DAKOTA

CITY           SKY/WX    TMP DP  RH WIND       PRES   REMARKS
BUFFALO          N/A     60  39  45 VRB3      30.15S
FAITH            N/A     57  47  69 CALM      30.19R
MOBRIDGE       CLEAR     54  47  77 N7        30.12R
$$

SDZ012>016-024>037-041>051-057-063-072>074-220800-
SOUTHWEST AND SOUTH CENTRAL SOUTH DAKOTA

CITY           SKY/WX    TMP DP  RH WIND       PRES   REMARKS
RAPID CTY ARPT CLEAR     53  42  66 NW7       30.22S
PIERRE         CLEAR     58  46  64 N8        30.13R
CUSTER         CLEAR     47  35  63 NW3       30.32S
ELLSWORTH AFB  CLEAR     54  42  64 W6        30.21S
PHILIP         CLEAR     51  45  79 W6        30.18R
SPEARFISH      FAIR      54  39  58 SW5       30.25F
WINNER         FAIR      58  52  80 NW5       30.16R
$$

SDZ004>011-016>023-039-040-220800-
NORTHEAST SOUTH DAKOTA

CITY           SKY/WX    TMP DP  RH WIND       PRES   REMARKS
ABERDEEN       CLEAR     54  47  77 NW9       30.08S
WATERTOWN      CLEAR     58  53  84 NW8       30.05S
BROOKINGS      CLEAR     58  54  86 N10       30.05R
SISSETON         N/A     57  52  83 NW9       30.03S
$$

SDZ017-020-022-023-036>040-048>070-220800-
SOUTHEAST SOUTH DAKOTA

CITY           SKY/WX    TMP DP  RH WIND       PRES   REMARKS
SIOUX FALLS    CLEAR     62  59  90 N12       30.04R
HURON          CLEAR     51  50  96 W7        30.09R
CHAMBERLAIN    CLEAR     62  55  75 NW5       30.13S
MITCHELL       CLEAR     59  53  80 N9        30.09R
YANKTON        CLEAR     64  61  90 NW13      30.05R
$$

ABBREVIATIONS USED IN REMARKS
   TC - TEMPERATURE IN CELSIUS
  WCI - WIND CHILL INDEX
   HX - HEAT INDEX
  VSB - VISIBILITY





USA.gov is the U.S. government's official web portal to all federal, state and local government web resources and services.